Change the Weather History Date:

Wednesday, August 6, 2014

  Actual Average Record
Temperature  
Mean Temperature 76 °F -  
Max Temperature 86 °F 88 °F 100 °F (2012)
Min Temperature 65 °F 56 °F 42 °F (2006)
Degree Days  
Heating Degree Days 0    
Cooling Degree Days 11    
Growing Degree Days 25 (Base 50)    
Moisture  
Dew Point 62 °F    
Average Humidity 75    
Maximum Humidity 90    
Minimum Humidity 40    
Precipitation  
Precipitation T in 0.05 in 0.51 in (2010)
Month to date precipitation 0.44 0.30  
Year to date precipitation 5.61 8.69  
Sea Level Pressure  
Sea Level Pressure 29.96 in    
Wind  
Wind Speed 7 mph (East)    
Max Wind Speed 12 mph    
Max Gust Speed -    
Visibility 10 miles    
Events      
T = Trace of Precipitation, MM = Missing Value Source: NWS Daily Summary

Daily Weather History Graph

Daily Weather History Graph

Search for Another Location

Airport or City:

Trip Planner

Search our weather history database for the weather conditions in past years. The results will help you decide how hot, cold, wet, or windy it might be!

Date:

Astronomy

Aug. 06, 2014 Rise Set
Actual Time 5:44 AM MDT 8:30 PM MDT
Civil Twilight 5:09 AM MDT 9:06 PM MDT
Nautical Twilight 4:23 AM MDT 9:51 PM MDT
Astronomical Twilight 3:29 AM MDT 10:44 PM MDT
Moon 4:54 PM MDT (8/6) 1:19 AM MDT (8/6)
Length of Visible Light 15h 57m
Length of Day
14h 45m
Waxing Gibbous, 78% of the Moon is Illuminated
Aug 6
Waxing Gibbous
Aug 10
Full
Aug 17
Last Quarter
Aug 25
New
Sep 2
First Quarter

Hourly Weather History & Observations

Time (MDT) Temp. Heat Index Dew Point Humidity Pressure Visibility Wind Dir Wind Speed Gust Speed Precip Events Conditions
12:53 AM 69.1 °F - 64.0 °F 84% 29.99 in 10.0 mi ESE 5.8 mph - N/A   Overcast
1:53 AM 68.0 °F - 64.0 °F 87% 29.98 in 10.0 mi SE 4.6 mph - 0.00 in   Overcast
2:36 AM 68.0 °F - 64.0 °F 87% 30.00 in 10.0 mi NE 4.6 mph - N/A   Overcast
2:53 AM 66.9 °F - 63.0 °F 87% 29.98 in 9.0 mi East 6.9 mph - N/A   Overcast
3:20 AM 66.0 °F - 63.0 °F 90% 29.99 in 8.0 mi ENE 6.9 mph - N/A   Mostly Cloudy
3:53 AM 66.9 °F - 63.0 °F 87% 29.98 in 10.0 mi ENE 8.1 mph - N/A   Overcast
4:38 AM 66.9 °F - 63.0 °F 87% 29.99 in 10.0 mi ENE 8.1 mph - N/A   Overcast
4:53 AM 66.9 °F - 63.0 °F 87% 29.96 in 10.0 mi NE 8.1 mph - N/A   Overcast
5:50 AM 66.2 °F - 62.6 °F 88% 29.98 in 10.0 mi East 9.2 mph - N/A   Overcast
5:53 AM 66.0 °F - 62.1 °F 87% 29.96 in 10.0 mi East 11.5 mph - N/A   Overcast
6:13 AM 66.0 °F - 62.1 °F 87% 29.99 in 10.0 mi East 8.1 mph - N/A   Overcast
6:31 AM 66.0 °F - 63.0 °F 90% 29.99 in 10.0 mi East 6.9 mph - N/A   Overcast
6:38 AM 66.0 °F - 62.1 °F 87% 29.99 in 9.0 mi East 9.2 mph - N/A   Overcast
6:53 AM 66.0 °F - 63.0 °F 90% 29.98 in 7.0 mi ENE 9.2 mph - N/A   Overcast
7:53 AM 66.9 °F - 63.0 °F 87% 29.98 in 7.0 mi East 10.4 mph - N/A   Overcast
8:53 AM 69.1 °F - 63.0 °F 81% 29.98 in 10.0 mi ENE 9.2 mph - N/A   Overcast
9:29 AM 69.1 °F - 63.0 °F 81% 30.00 in 10.0 mi East 8.1 mph - N/A   Overcast
9:53 AM 70.0 °F - 63.0 °F 78% 29.97 in 10.0 mi East 6.9 mph - N/A   Overcast
10:29 AM 71.1 °F - 63.0 °F 75% 29.99 in 10.0 mi East 6.9 mph - N/A   Overcast
10:36 AM 71.1 °F - 63.0 °F 75% 30.00 in 10.0 mi East 5.8 mph - N/A   Overcast
10:53 AM 70.0 °F - 62.1 °F 76% 29.98 in 10.0 mi East 5.8 mph - N/A   Overcast
11:53 AM 73.0 °F - 62.1 °F 68% 29.96 in 10.0 mi ENE 5.8 mph - N/A   Overcast
12:53 PM 77.0 °F - 60.8 °F 57% 29.98 in 10.0 mi SE 4.6 mph - N/A   Overcast
1:53 PM 81.0 °F 81.6 °F 60.1 °F 49% 29.93 in 10.0 mi Variable 4.6 mph - N/A   Overcast
2:53 PM 82.9 °F 83.2 °F 60.1 °F 46% 29.92 in 10.0 mi Calm Calm - N/A   Scattered Clouds
3:53 PM 82.9 °F 83.2 °F 60.1 °F 46% 29.90 in 10.0 mi ESE 5.8 mph - N/A   Mostly Cloudy
4:53 PM 84.9 °F 84.8 °F 60.1 °F 43% 29.89 in 10.0 mi ENE 8.1 mph - N/A   Partly Cloudy
5:53 PM 84.9 °F 84.2 °F 57.9 °F 40% 29.89 in 10.0 mi Variable 3.5 mph - N/A   Partly Cloudy
6:53 PM 82.9 °F 83.2 °F 60.1 °F 46% 29.88 in 10.0 mi East 8.1 mph - N/A   Clear
7:53 PM 80.1 °F 81.2 °F 62.1 °F 54% 29.88 in 10.0 mi East 9.2 mph - N/A   Clear
8:53 PM 75.0 °F - 63.0 °F 66% 29.90 in 10.0 mi East 8.1 mph - N/A   Clear
9:53 PM 72.0 °F - 64.0 °F 76% 29.90 in 10.0 mi East 8.1 mph - N/A   Clear
10:53 PM 68.0 °F - 63.0 °F 84% 29.91 in 10.0 mi NE 6.9 mph - N/A   Clear
11:53 PM 66.9 °F - 62.1 °F 84% 29.91 in 10.0 mi NE 4.6 mph - N/A   Clear